FW4758 Weather Reports


Display with metric or nautical units.
time (UTC)temp
F
wind
direction
speed
MPH
gust
MPH
rain 1hr
in
rain 24hr
in
rain mn
in
humidity
%
barometer
mb
20260508013007 63 157 1.0 2.0 0.00 0.00 0.00 76 1014.0
20260508011512 63 178 1.0 3.0 0.00 0.00 0.00 75 1014.1
20260508010006 63 167 0.0 2.0 0.00 0.00 0.00 74 1013.9
20260508004504 64 167 1.0 2.0 0.00 0.00 0.00 73 1014.0
20260508003005 64 175 1.0 3.0 0.00 0.00 0.00 73 1014.1
20260508001506 64 175 2.0 3.0 0.00 0.00 0.00 72 1014.2
20260508000001 65 162 2.0 5.0 0.00 0.00 0.00 70 1014.3
20260507234602 65 185 2.0 4.0 0.00 0.00 0.00 70 1014.5
20260507233100 66 179 0.0 3.0 0.00 0.00 0.00 69 1014.4
20260507231558 65 178 2.0 5.0 0.00 0.00 0.00 68 1014.4
20260507230057 66 165 3.0 5.0 0.00 0.00 0.00 69 1014.5
20260507224601 66 198 4.0 6.0 0.00 0.10 0.00 68 1014.7
20260507223058 66 161 4.0 8.0 0.00 0.10 0.00 67 1014.8
20260507221554 66 169 5.0 7.0 0.00 0.10 0.00 67 1014.9
20260507220054 67 183 4.0 7.0 0.00 0.10 0.00 63 1014.9
20260507214555 68 134 3.0 7.0 0.00 0.10 0.00 58 1014.9
20260507213056 68 128 3.0 7.0 0.00 0.10 0.00 54 1015.1
20260507211553 68 95 2.0 6.0 0.00 0.10 0.00 56 1015.4
20260507210048 68 101 2.0 4.0 0.00 0.10 0.00 56 1015.8
20260507204548 68 113 3.0 8.0 0.00 0.10 0.00 55 1015.9
20260507203047 68 91 7.0 11.0 0.00 0.10 0.00 55 1015.8
20260507201549 69 65 4.0 11.0 0.00 0.10 0.00 54 1015.6
20260507200046 69 96 5.0 11.0 0.00 0.10 0.00 56 1015.7
20260507194544 68 140 5.0 10.0 0.00 0.10 0.00 55 1016.1
20260507193044 69 70 7.0 12.0 0.00 0.10 0.00 54 1016.2
20260507191544 69 78 2.0 9.0 0.00 0.10 0.00 53 1016.6
20260507190042 70 51 3.0 7.0 0.00 0.10 0.00 55 1017.1
20260507184540 69 89 4.0 12.0 0.00 0.10 0.00 55 1017.0
20260507183049 69 95 4.0 12.0 0.00 0.10 0.00 55 1017.0
20260507181537 69 36 7.0 13.0 0.00 0.10 0.00 59 1016.9
20260507180045 68 339 5.0 11.0 0.00 0.10 0.00 58 1017.1
20260507174532 67 53 8.0 13.0 0.00 0.10 0.00 60 1017.3
20260507173035 67 360 7.0 13.0 0.00 0.10 0.00 60 1017.5
20260507171526 65 32 5.0 11.0 0.00 0.10 0.00 63 1017.8
20260507170041 65 15 5.0 11.0 0.00 0.10 0.00 65 1018.2
20260507164522 64 37 4.0 11.0 0.00 0.10 0.00 66 1018.7
20260507163020 64 360 4.0 8.0 0.00 0.10 0.00 67 1019.0
20260507161518 63 346 3.0 10.0 0.00 0.10 0.00 69 1019.0
20260507160016 63 9 3.0 9.0 0.00 0.10 0.00 73 1019.1
20260507154512 61 44 3.0 11.0 0.00 0.10 0.00 71 1018.9
20260507153010 61 47 5.0 11.0 0.00 0.10 0.00 73 1018.9
20260507151516 61 338 3.0 9.0 0.00 0.10 0.00 75 1019.2
20260507150007 60 65 5.0 10.0 0.00 0.10 0.00 77 1019.3
20260507144505 60 350 3.0 6.0 0.00 0.14 0.00 78 1019.5
20260507143001 59 360 3.0 9.0 0.00 0.14 0.00 82 1019.5
20260507141600 58 42 3.0 7.0 0.00 0.14 0.00 85 1019.6
20260507134556 55 351 3.0 7.0 0.00 0.14 0.00 86 1019.7
20260507133056 54 299 2.0 6.0 0.00 0.14 0.00 85 1019.7
20260507131555 53 300 1.0 4.0 0.00 0.14 0.00 85 1019.7
20260507130104 52 314 1.0 4.0 0.00 0.14 0.00 85 1019.6
20260507124558 51 207 1.0 3.0 0.00 0.14 0.00 86 1019.9
20260507123056 51 207 1.0 3.0 0.00 0.14 0.00 86 1019.7
20260507121557 51 188 2.0 4.0 0.00 0.14 0.00 86 1019.4
20260507120052 51 334 0.0 0.0 0.00 0.14 0.00 86 1020.0
20260507114549 51 334 0.0 0.0 0.00 0.14 0.00 86 1019.6
20260507113050 51 334 1.0 3.0 0.00 0.14 0.00 86 1019.5
20260507111546 51 298 2.0 4.0 0.00 0.14 0.00 86 1019.2
20260507110055 52 342 2.0 5.0 0.00 0.14 0.00 86 1019.0
20260507104548 52 319 3.0 7.0 0.00 0.14 0.00 86 1018.8
20260507103059 52 328 4.0 7.0 0.00 0.14 0.00 86 1018.4
20260507101539 52 308 3.0 5.0 0.00 0.14 0.00 86 1018.3
20260507100033 53 342 3.0 5.0 0.00 0.14 0.00 85 1017.9
20260507094534 53 355 1.0 5.0 0.00 0.14 0.00 86 1017.8
20260507093029 53 16 1.0 5.0 0.00 0.14 0.00 85 1017.6
20260507091536 54 16 2.0 6.0 0.00 0.14 0.00 85 1017.2
20260507090032 54 55 2.0 8.0 0.00 0.14 0.00 85 1017.3
20260507084537 54 40 3.0 7.0 0.00 0.14 0.00 85 1017.0
20260507083021 54 28 4.0 8.0 0.00 0.14 0.00 85 1016.8
20260507081519 55 350 3.0 9.0 0.00 0.14 0.00 85 1016.8
20260507080015 55 26 3.0 7.0 0.00 0.14 0.00 84 1017.0
20260507074513 55 38 3.0 8.0 0.00 0.14 0.00 84 1017.0
20260507073012 55 17 3.0 7.0 0.00 0.14 0.00 84 1016.7
20260507071509 55 5 2.0 7.0 0.00 0.14 0.00 83 1016.6
20260507070010 56 17 3.0 7.0 0.00 0.14 0.00 83 1016.2
20260507064505 56 25 5.0 8.0 0.00 0.14 0.00 83 1016.1
20260507063005 56 53 3.0 9.0 0.00 0.14 0.00 83 1016.0
20260507061502 56 54 4.0 8.0 0.00 0.14 0.00 82 1016.0
20260507060105 57 46 5.0 11.0 0.00 0.14 0.00 82 1016.0
20260507054614 57 59 5.0 9.0 0.00 0.14 0.00 82 1016.1
20260507053107 57 38 6.0 11.0 0.00 0.14 0.00 82 1016.0
20260507051600 57 41 5.0 10.0 0.00 0.14 0.00 82 1016.1
20260507050056 57 59 6.0 13.0 0.00 0.14 0.00 81 1016.0
20260507044557 57 28 7.0 11.0 0.00 0.14 0.14 81 1015.9
20260507043053 58 35 4.0 13.0 0.00 0.14 0.14 81 1016.1
20260507041601 58 32 9.0 12.0 0.00 0.14 0.14 82 1016.2
20260507040053 58 55 7.0 12.0 0.00 0.14 0.14 82 1016.1
20260507034551 59 70 5.0 8.0 0.00 0.14 0.14 82 1016.3
20260507033052 59 37 4.0 11.0 0.00 0.14 0.14 81 1016.2
20260507031549 59 32 5.0 11.0 0.00 0.14 0.14 81 1016.2
20260507030048 59 45 6.0 11.0 0.00 0.14 0.14 83 1015.7
20260507024551 59 9 4.0 8.0 0.00 0.14 0.14 83 1015.8
20260507023044 59 13 4.0 9.0 0.00 0.14 0.14 83 1015.5
20260507021552 58 360 6.0 10.0 0.00 0.14 0.14 84 1015.1
20260507020105 58 40 6.0 11.0 0.00 0.14 0.14 85 1014.7
20260507014601 57 49 2.0 5.0 0.00 0.14 0.14 85 1014.3
20260507013047 57 60 1.0 3.0 0.00 0.14 0.14 85 1014.0